Flag for Vanuatu Weather past 2 weeks in Port Vila, Vanuatu

Now
70 °F

Partly cloudy.


Feels Like: 70 °F
Forecast: 73 / 77 °F
Wind: 1 mph from North

Location: Bauerfield Efate

Current Time: Jul 28, 2014 at 9:33:15 PM

Latest Report: Jul 28, 2014 at 8:00 PM


Visibility: N/A

Pressure: 30.04 "Hg

Humidity: 88%

Dew point: 66 °F

Location of Port VilaLocation

Historic Weather in Port Vila — Graph

°F

Port Vila temperature yesterday

Maximum temperature yesterday: 73 °F (at 10:00 AM)
Minimum temperature yesterday: 64 °F (at 1:00 AM)
Average temperature yesterday: 68 °F

Past Weeks' High & Low Weather Summary

 TemperatureHumidityPressure
High79 °F (Jul 17, 11:00 AM)100% (Jul 13, 9:00 PM)30.15 "Hg (Jul 13, 9:00 PM)
Low36 °F (Jul 25, 8:00 PM)44% (Jul 15, 11:00 AM)29.83 "Hg (Jul 18, 2:00 PM)
Average68 °F79%29.96 "Hg
* Reported Jul 13 8:00 PM — Jul 28 8:00 PM, Port Vila, Weather by CustomWeather, © 2014

Note: Actual official high and low records may vary slightly from our data, if they occured in-between our weather recording intervals... More about our weather records

Advertising

Port Vila weather history for previous 24 hours

 ConditionsComfort  
Time TempWeatherWind HumidityBarometerVisibility
8:00 PM
Jul 28
70 °FPartly cloudy.1 mph88%30.04 "HgN/A
7:00 PM72 °FPartly cloudy.No wind83%30.01 "HgN/A
6:00 PM72 °FPartly cloudy.No wind78%30.01 "HgN/A
5:00 PM73 °FBroken clouds.2 mph78%29.98 "HgN/A
4:00 PM75 °FBroken clouds.5 mph69%29.95 "HgN/A
3:00 PM75 °FBroken clouds.7 mph65%29.95 "HgN/A
2:00 PM75 °FBroken clouds.8 mph69%29.98 "HgN/A
1:00 PM73 °FBroken clouds.8 mph78%29.98 "HgN/A
12:00 PM75 °FBroken clouds.9 mph69%30.01 "HgN/A
11:00 AM75 °FBroken clouds.8 mph74%30.01 "HgN/A
10:00 AM75 °FBroken clouds.8 mph78%30.04 "HgN/A
9:00 AM75 °FScattered clouds.6 mph78%30.04 "HgN/A
8:00 AM66 °FScattered clouds.No wind94%30.04 "HgN/A
7:00 AM63 °FScattered clouds.2 mph100%30.01 "HgN/A
6:00 AM64 °FPassing clouds.No wind94%29.98 "HgN/A
5:00 AM61 °FPassing clouds.No wind100%29.98 "HgN/A
4:00 AM61 °FPassing clouds.No wind100%29.98 "HgN/A
3:00 AM63 °FPassing clouds.No wind94%29.98 "HgN/A
2:00 AM63 °FPassing clouds.No wind94%30.01 "HgN/A
1:00 AM64 °FPassing clouds.No wind94%30.01 "HgN/A
12:00 AM64 °FPassing clouds.No wind94%30.01 "HgN/A
11:00 PM
Jul 27
64 °FPassing clouds.No wind94%30.04 "HgN/A
10:00 PM66 °FPassing clouds.No wind94%30.04 "HgN/A
Weather by CustomWeather, © 2014

See weather overviewHow to use our weather pages